This is the latest recevied weather packets stored in our database for station/object OE2SWM. If no packets are shown the sender has not sent any weather packets the latest 10 day(s).
| Time | Temp. | Humidity | Pressure | Rain* | Wind** | Luminosity | Snow |
|---|---|---|---|---|---|---|---|
| 1777808400 | 22.78° C | 34% | 969 hPa | 0 mm | - | - | - |
| 1777807800 | 21.67° C | 35% | 970 hPa | 0 mm | - | - | - |
| 1777807200 | 21.67° C | 36% | 969 hPa | 0 mm | - | - | - |
| 1777806600 | 21.67° C | 36% | 969 hPa | 0 mm | - | - | - |
| 1777806000 | 21.67° C | 36% | 970 hPa | 0 mm | - | - | - |
| 1777805400 | 20.56° C | 37% | 970 hPa | 0 mm | - | - | - |
| 1777804800 | 20.56° C | 39% | 970 hPa | 0 mm | - | - | - |
| 1777804200 | 20.56° C | 43% | 970 hPa | 0 mm | - | - | - |
| 1777803600 | 20° C | 43% | 970 hPa | 0 mm | - | - | - |
| 1777803000 | 20° C | 44% | 970 hPa | 0 mm | - | - | - |
| 1777802400 | 20° C | 44% | 970 hPa | 0 mm | - | - | - |
| 1777801800 | 18.89° C | 44% | 970 hPa | 0 mm | - | - | - |
| 1777801200 | 18.89° C | 45% | 971 hPa | 0 mm | - | - | - |
| 1777800600 | 18.89° C | 47% | 971 hPa | 0 mm | - | - | - |
| 1777800000 | 17.78° C | 49% | 971 hPa | 0 mm | - | - | - |
| 1777799400 | 17.78° C | 51% | 971 hPa | 0 mm | - | - | - |
| 1777798800 | 16.67° C | 49% | 971 hPa | 0 mm | - | - | - |
| 1777798200 | 16.67° C | 51% | 971 hPa | 0 mm | - | - | - |
| 1777797600 | 16.67° C | 53% | 971 hPa | 0 mm | - | - | - |
| 1777797000 | 15.56° C | 52% | 971 hPa | 0 mm | - | - | - |
| 1777796400 | 15.56° C | 53% | 971 hPa | 0 mm | - | - | - |
| 1777795800 | 15° C | 53% | 971 hPa | 0 mm | - | - | - |
| 1777795200 | 15° C | 55% | 971 hPa | 0 mm | - | - | - |
| 1777794600 | 13.89° C | 57% | 972 hPa | 0 mm | - | - | - |
| 1777794000 | 13.89° C | 57% | 972 hPa | 0 mm | - | - | - |
* Rain latest hour (hover to see other rain measurements)
** Current wind speed in m/s (hover to see current wind gust speed)